Regional Weather Roundup
Issued by NWS

Home | Current Version | Previous Version | Text Only | Print | Product List | Glossary Off
Versions: 1 2 3 4 5 6 7 8 9 10 11 12 13 14 15 16 17 18 19 20 21 22 23 24 25 26 27 28 29 30 31 32 33 34 35 36 37 38 39 40 41 42 43 44 45 46 47 48 49 50

000
ASUS43 KTOP 240959
RWRKS

WEATHER ROUNDUP FOR KANSAS
NATIONAL WEATHER SERVICE GOODLAND KS
500 AM CDT SAT JUN 24 2017

NOTE:  "FAIR" INDICATES FEW OR NO CLOUDS BELOW 12,000 FEET WITH NO
SIGNIFICANT WEATHER AND/OR OBSTRUCTIONS TO VISIBILITY.

KSZ001>006-013>018-027>032-041>047-241100-
NORTHWEST KANSAS

CITY           SKY/WX    TMP DP  RH WIND       PRES   REMARKS
GOODLAND       CLEAR     53  46  77 E7        30.25S
HAYS           CLOUDY    59  51  75 NE5       30.19S
HILL CITY      CLEAR     51  47  86 CALM      30.21F
RUSSELL        CLEAR     59  49  69 N6        30.17S
$$

KSZ061>065-074>080-084>089-241100-
SOUTHWEST KANSAS

CITY           SKY/WX    TMP DP  RH WIND       PRES   REMARKS
DODGE CITY     CLOUDY    61  55  81 CALM      30.19S
ELKHART          N/A     62  45  53 NW2         N/A
GARDEN CITY    MOCLDY    59  53  80 NW6       30.21R
GREAT BEND     CLEAR     58  52  80 CALM      30.19R
LIBERAL        CLOUDY    62  54  74 NW5       30.22S
$$

KSZ066>073-081>083-090>101-241100-
SOUTHEAST KANSAS

CITY           SKY/WX    TMP DP  RH WIND       PRES   REMARKS
CHANUTE        CLEAR     60  56  86 N3        30.13R
COFFEYVILLE    CLEAR     61  55  81 N7        30.11S
HUTCHINSON     PTCLDY    62  50  64 NE7       30.14F
MEDICINE LODGE   N/A     63  53  70 N6        30.15R
NEWTON         PTCLDY    62  50  64 NE7       30.15F
PARSONS        CLEAR     62  55  77 N5        30.13R
WICHITA INTL   MOCLDY    63  55  75 NE6       30.14S
WICHITA JABRA  CLEAR     58  53  84 NE5       30.14S
WINFIELD       CLOUDY    68  55  63 NE5       30.14R
$$

KSZ007>012-019>026-033>040-048>060-102>105-241100-
NORTHEAST KANSAS

CITY           SKY/WX    TMP DP  RH WIND       PRES   REMARKS
CONCORDIA      CLEAR     54  49  83 N7        30.18S
EMPORIA        PTCLDY    57  54  89 CALM      30.14S
LAWRENCE       CLEAR     54  54 100 W6        30.13S
MANHATTAN      CLEAR     52  50  93 CALM      30.16R
OLATHE IND     CLEAR     56  52  86 N5        30.13S
OLATHE EXE     PTCLDY    61  53  75 N5        30.12S
SALINA         CLEAR     57  50  77 N6        30.16F
TOPEKA BILLARD CLEAR     57  56  96 NW5       30.14R
TOPEKA FORBES  CLEAR     56  53  90 CALM      30.14R
$$




USA.gov is the U.S. government's official web portal to all federal, state and local government web resources and services.